Year,Month,Day,Hour,Minute,Value (Times are PST for temperature in C)
2017,05,17,00,00,8.70
2017,05,17,00,01,8.70
2017,05,17,00,02,8.60
2017,05,17,00,03,8.60
2017,05,17,00,04,8.60
2017,05,17,00,05,8.60
2017,05,17,00,06,8.60
2017,05,17,00,07,8.50
2017,05,17,00,08,8.50
2017,05,17,00,09,8.50
2017,05,17,00,10,8.50
2017,05,17,00,11,8.50
2017,05,17,00,12,8.50
2017,05,17,00,13,8.50
2017,05,17,00,14,8.50
2017,05,17,00,15,8.50
2017,05,17,00,16,8.50
2017,05,17,00,17,8.40
2017,05,17,00,18,8.40
2017,05,17,00,19,8.40
2017,05,17,00,20,8.40
2017,05,17,00,21,8.30
2017,05,17,00,22,8.30
2017,05,17,00,23,8.30
2017,05,17,00,24,8.30
2017,05,17,00,25,8.30
2017,05,17,00,26,8.30
2017,05,17,00,27,8.30
2017,05,17,00,28,8.30
2017,05,17,00,29,8.30
2017,05,17,00,30,8.30
2017,05,17,00,31,8.30
2017,05,17,00,32,8.30
2017,05,17,00,33,8.30
2017,05,17,00,34,8.30
2017,05,17,00,35,8.30
2017,05,17,00,36,8.30
2017,05,17,00,37,8.20
2017,05,17,00,38,8.20
2017,05,17,00,39,8.20
2017,05,17,00,40,8.20
2017,05,17,00,41,8.20
2017,05,17,00,42,8.20
2017,05,17,00,43,8.20
2017,05,17,00,44,8.20
2017,05,17,00,45,8.20
2017,05,17,00,46,8.20
2017,05,17,00,47,8.20
2017,05,17,00,48,8.20
2017,05,17,00,49,8.20
2017,05,17,00,50,8.10
2017,05,17,00,51,8.10
2017,05,17,00,52,8.10
2017,05,17,00,53,8.10
2017,05,17,00,54,8.00
2017,05,17,00,55,8.00
2017,05,17,00,56,7.90
2017,05,17,00,57,7.90
2017,05,17,00,58,7.90
2017,05,17,00,59,7.90
2017,05,17,01,00,7.90
2017,05,17,01,01,7.90
2017,05,17,01,02,7.90
2017,05,17,01,03,7.90
2017,05,17,01,04,7.90
2017,05,17,01,05,7.90
2017,05,17,01,06,7.90
2017,05,17,01,07,7.90
2017,05,17,01,08,7.90
2017,05,17,01,09,7.90
2017,05,17,01,10,7.90
2017,05,17,01,11,7.90
2017,05,17,01,12,7.90
2017,05,17,01,13,7.90
2017,05,17,01,14,7.90
2017,05,17,01,15,7.90
2017,05,17,01,16,7.90
2017,05,17,01,17,7.90
2017,05,17,01,18,7.80
2017,05,17,01,19,7.80
2017,05,17,01,20,7.80
2017,05,17,01,21,7.80
2017,05,17,01,22,7.80
2017,05,17,01,23,7.70
2017,05,17,01,24,7.70
2017,05,17,01,25,7.70
2017,05,17,01,26,7.60
2017,05,17,01,27,7.60
2017,05,17,01,28,7.60
2017,05,17,01,29,7.60
2017,05,17,01,30,7.60
2017,05,17,01,31,7.60
2017,05,17,01,32,7.60
2017,05,17,01,33,7.60
2017,05,17,01,34,7.60
2017,05,17,01,35,7.60
2017,05,17,01,36,7.60
2017,05,17,01,37,7.60
2017,05,17,01,38,7.60
2017,05,17,01,39,7.60
2017,05,17,01,40,7.60
2017,05,17,01,41,7.60
2017,05,17,01,42,7.60
2017,05,17,01,43,7.60
2017,05,17,01,44,7.50
2017,05,17,01,45,7.50
2017,05,17,01,46,7.50
2017,05,17,01,47,7.50
2017,05,17,01,48,7.50
2017,05,17,01,49,7.40
2017,05,17,01,50,7.40
2017,05,17,01,51,7.40
2017,05,17,01,52,7.40
2017,05,17,01,53,7.40
2017,05,17,01,54,7.40
2017,05,17,01,55,7.40
2017,05,17,01,56,7.40
2017,05,17,01,57,7.40
2017,05,17,01,58,7.40
2017,05,17,01,59,7.30
2017,05,17,02,00,7.30
2017,05,17,02,01,7.30
2017,05,17,02,02,7.30
2017,05,17,02,03,7.30
2017,05,17,02,04,7.30
2017,05,17,02,05,7.20
2017,05,17,02,06,7.20
2017,05,17,02,07,7.20
2017,05,17,02,08,7.20
2017,05,17,02,09,7.10
2017,05,17,02,10,7.10
2017,05,17,02,11,7.10
2017,05,17,02,12,7.00
2017,05,17,02,13,7.00
2017,05,17,02,14,7.00
2017,05,17,02,15,7.00
2017,05,17,02,16,7.00
2017,05,17,02,17,7.00
2017,05,17,02,18,7.00
2017,05,17,02,19,7.00
2017,05,17,02,20,6.90
2017,05,17,02,21,6.90
2017,05,17,02,22,6.90
2017,05,17,02,23,6.90
2017,05,17,02,24,6.90
2017,05,17,02,25,6.90
2017,05,17,02,26,6.90
2017,05,17,02,27,6.90
2017,05,17,02,28,6.90
2017,05,17,02,29,6.90
2017,05,17,02,30,6.90
2017,05,17,02,31,6.90
2017,05,17,02,32,6.90
2017,05,17,02,33,6.90
2017,05,17,02,34,6.90
2017,05,17,02,35,6.90
2017,05,17,02,36,6.80
2017,05,17,02,37,6.80
2017,05,17,02,38,6.80
2017,05,17,02,39,6.80
2017,05,17,02,40,6.80
2017,05,17,02,41,6.80
2017,05,17,02,42,6.70
2017,05,17,02,43,6.70
2017,05,17,02,44,6.70
2017,05,17,02,45,6.70
2017,05,17,02,46,6.70
2017,05,17,02,47,6.70
2017,05,17,02,48,6.70
2017,05,17,02,49,6.70
2017,05,17,02,50,6.60
2017,05,17,02,51,6.60
2017,05,17,02,52,6.70
2017,05,17,02,53,6.70
2017,05,17,02,54,6.70
2017,05,17,02,55,6.70
2017,05,17,02,56,6.70
2017,05,17,02,57,6.70
2017,05,17,02,58,6.60
2017,05,17,02,59,6.60
2017,05,17,03,00,6.60
2017,05,17,03,01,6.60
2017,05,17,03,02,6.60
2017,05,17,03,03,6.50
2017,05,17,03,04,6.50
2017,05,17,03,05,6.40
2017,05,17,03,06,6.40
2017,05,17,03,07,6.40
2017,05,17,03,08,6.40
2017,05,17,03,09,6.40
2017,05,17,03,10,6.30
2017,05,17,03,11,6.30
2017,05,17,03,12,6.30
2017,05,17,03,13,6.30
2017,05,17,03,14,6.30
2017,05,17,03,15,6.30
2017,05,17,03,16,6.30
2017,05,17,03,17,6.30
2017,05,17,03,18,6.30
2017,05,17,03,19,6.30
2017,05,17,03,20,6.30
2017,05,17,03,21,6.30
2017,05,17,03,22,6.30
2017,05,17,03,23,6.30
2017,05,17,03,24,6.30
2017,05,17,03,25,6.20
2017,05,17,03,26,6.20
2017,05,17,03,27,6.20
2017,05,17,03,28,6.20
2017,05,17,03,29,6.10
2017,05,17,03,30,6.10
2017,05,17,03,31,6.10
2017,05,17,03,32,6.10
2017,05,17,03,33,6.10
2017,05,17,03,34,6.00
2017,05,17,03,35,6.00
2017,05,17,03,36,6.00
2017,05,17,03,37,5.90
2017,05,17,03,38,5.90
2017,05,17,03,39,5.90
2017,05,17,03,40,5.90
2017,05,17,03,41,5.90
2017,05,17,03,42,5.90
2017,05,17,03,43,5.90
2017,05,17,03,44,5.90
2017,05,17,03,45,5.80
2017,05,17,03,46,5.80
2017,05,17,03,47,5.80
2017,05,17,03,48,5.80
2017,05,17,03,49,5.80
2017,05,17,03,50,5.80
2017,05,17,03,51,5.70
2017,05,17,03,52,5.70
2017,05,17,03,53,5.70
2017,05,17,03,54,5.70
2017,05,17,03,55,5.70
2017,05,17,03,56,5.70
2017,05,17,03,57,5.60
2017,05,17,03,58,5.60
2017,05,17,03,59,5.60
2017,05,17,04,00,5.60
2017,05,17,04,01,5.60
2017,05,17,04,02,5.60
2017,05,17,04,03,5.60
2017,05,17,04,04,5.60
2017,05,17,04,05,5.60
2017,05,17,04,06,5.60
2017,05,17,04,07,5.60
2017,05,17,04,08,5.60
2017,05,17,04,09,5.60
2017,05,17,04,10,5.50
2017,05,17,04,11,5.50
2017,05,17,04,12,5.50
2017,05,17,04,13,5.50
2017,05,17,04,14,5.50
2017,05,17,04,15,5.40
2017,05,17,04,16,5.40
2017,05,17,04,17,5.40
2017,05,17,04,18,5.40
2017,05,17,04,19,5.40
2017,05,17,04,20,5.30
2017,05,17,04,21,5.30
2017,05,17,04,22,5.30
2017,05,17,04,23,5.30
2017,05,17,04,24,5.30
2017,05,17,04,25,5.30
2017,05,17,04,26,5.30
2017,05,17,04,27,5.30
2017,05,17,04,28,5.30
2017,05,17,04,29,5.30
2017,05,17,04,30,5.30
2017,05,17,04,31,5.30
2017,05,17,04,32,5.30
2017,05,17,04,33,5.30
2017,05,17,04,34,5.30
2017,05,17,04,35,5.30
2017,05,17,04,36,5.30
2017,05,17,04,37,5.30
2017,05,17,04,38,5.30
2017,05,17,04,39,5.30
2017,05,17,04,40,5.30
2017,05,17,04,41,5.30
2017,05,17,04,42,5.30
2017,05,17,04,43,5.30
2017,05,17,04,44,5.20
2017,05,17,04,45,5.20
2017,05,17,04,46,5.20
2017,05,17,04,47,5.20
2017,05,17,04,48,5.20
2017,05,17,04,49,5.20
2017,05,17,04,50,5.20
2017,05,17,04,51,5.20
2017,05,17,04,52,5.20
2017,05,17,04,53,5.20
2017,05,17,04,54,5.20
2017,05,17,04,55,5.20
2017,05,17,04,56,5.20
2017,05,17,04,57,5.20
2017,05,17,04,58,5.20
2017,05,17,04,59,5.20
2017,05,17,05,00,5.20
2017,05,17,05,01,5.20
2017,05,17,05,02,5.10
2017,05,17,05,03,5.10
2017,05,17,05,04,5.10
2017,05,17,05,05,5.10
2017,05,17,05,06,5.10
2017,05,17,05,07,5.10
2017,05,17,05,08,5.10
2017,05,17,05,09,5.10
2017,05,17,05,10,5.10
2017,05,17,05,11,5.00
2017,05,17,05,12,5.00
2017,05,17,05,13,4.90
2017,05,17,05,14,4.90
2017,05,17,05,15,4.90
2017,05,17,05,16,4.90
2017,05,17,05,17,4.90
2017,05,17,05,18,4.90
2017,05,17,05,19,4.90
2017,05,17,05,20,4.80
2017,05,17,05,21,4.80
2017,05,17,05,22,4.80
2017,05,17,05,23,4.80
2017,05,17,05,24,4.80
2017,05,17,05,25,4.80
2017,05,17,05,26,4.80
2017,05,17,05,27,4.90
2017,05,17,05,28,4.90
2017,05,17,05,29,4.90
2017,05,17,05,30,5.00
2017,05,17,05,31,5.00
2017,05,17,05,32,5.00
2017,05,17,05,33,5.10
2017,05,17,05,34,5.10
2017,05,17,05,35,5.10
2017,05,17,05,36,5.10
2017,05,17,05,37,5.10
2017,05,17,05,38,5.10
2017,05,17,05,39,5.10
2017,05,17,05,40,5.10
2017,05,17,05,41,5.10
2017,05,17,05,42,5.10
2017,05,17,05,43,5.10
2017,05,17,05,44,5.10
2017,05,17,05,45,5.00
2017,05,17,05,46,5.00
2017,05,17,05,47,5.00
2017,05,17,05,48,5.00
2017,05,17,05,49,5.00
2017,05,17,05,50,5.00
2017,05,17,05,51,5.00
2017,05,17,05,52,5.00
2017,05,17,05,53,5.10
2017,05,17,05,54,5.10
2017,05,17,05,55,5.10
2017,05,17,05,56,5.10
2017,05,17,05,57,5.10
2017,05,17,05,58,5.20
2017,05,17,05,59,5.20
2017,05,17,06,00,5.20
2017,05,17,06,01,5.20
2017,05,17,06,02,5.20
2017,05,17,06,03,5.30
2017,05,17,06,04,5.30
2017,05,17,06,05,5.30
2017,05,17,06,06,5.30
2017,05,17,06,07,5.30
2017,05,17,06,08,5.30
2017,05,17,06,09,5.30
2017,05,17,06,10,5.30
2017,05,17,06,11,5.30
2017,05,17,06,12,5.30
2017,05,17,06,13,5.40
2017,05,17,06,14,5.40
2017,05,17,06,15,5.40
2017,05,17,06,16,5.40
2017,05,17,06,17,5.40
2017,05,17,06,18,5.40
2017,05,17,06,19,5.40
2017,05,17,06,20,5.40
2017,05,17,06,21,5.40
2017,05,17,06,22,5.40
2017,05,17,06,23,5.40
2017,05,17,06,24,5.40
2017,05,17,06,25,5.40
2017,05,17,06,26,5.40
2017,05,17,06,27,5.50
2017,05,17,06,28,5.50
2017,05,17,06,29,5.50
2017,05,17,06,30,5.50
2017,05,17,06,31,5.50
2017,05,17,06,32,5.60
2017,05,17,06,33,5.60
2017,05,17,06,34,5.60
2017,05,17,06,35,5.60
2017,05,17,06,36,5.60
2017,05,17,06,37,5.60
2017,05,17,06,38,5.60
2017,05,17,06,39,5.60
2017,05,17,06,40,5.70
2017,05,17,06,41,5.70
2017,05,17,06,42,5.70
2017,05,17,06,43,5.70
2017,05,17,06,44,5.70
2017,05,17,06,45,5.70
2017,05,17,06,46,5.70
2017,05,17,06,47,5.80
2017,05,17,06,48,5.80
2017,05,17,06,49,5.80
2017,05,17,06,50,5.90
2017,05,17,06,51,5.90
2017,05,17,06,52,5.90
2017,05,17,06,53,6.00
2017,05,17,06,54,6.00
2017,05,17,06,55,6.00
2017,05,17,06,56,6.10
2017,05,17,06,57,6.10
2017,05,17,06,58,6.20
2017,05,17,06,59,6.20
2017,05,17,07,00,6.20
2017,05,17,07,01,6.20
2017,05,17,07,02,6.20
2017,05,17,07,03,6.20
2017,05,17,07,04,6.20
2017,05,17,07,05,6.20
2017,05,17,07,06,6.20
2017,05,17,07,07,6.20
2017,05,17,07,08,6.20
2017,05,17,07,09,6.20
2017,05,17,07,10,6.20
2017,05,17,07,43,7.20
2017,05,17,07,44,7.20
2017,05,17,07,45,7.20
2017,05,17,07,46,7.20
2017,05,17,07,47,7.20
2017,05,17,07,48,7.20
2017,05,17,07,49,7.30
2017,05,17,07,50,7.30
2017,05,17,07,51,7.30
2017,05,17,07,52,7.30
2017,05,17,07,53,7.30
2017,05,17,07,54,7.40
2017,05,17,07,55,7.40
2017,05,17,07,56,7.40
2017,05,17,07,57,7.50
2017,05,17,07,58,7.50
2017,05,17,07,59,7.50
2017,05,17,08,00,7.50
2017,05,17,08,01,7.60
2017,05,17,08,02,7.60
2017,05,17,08,03,7.60
2017,05,17,08,04,7.60
2017,05,17,08,05,7.60
2017,05,17,08,06,7.70
2017,05,17,08,07,7.70
2017,05,17,08,08,7.70
2017,05,17,08,09,7.70
2017,05,17,08,10,7.70
2017,05,17,08,11,7.70
2017,05,17,08,12,7.80
2017,05,17,08,13,7.80
2017,05,17,08,14,7.80
2017,05,17,08,15,7.80
2017,05,17,08,16,7.80
2017,05,17,08,17,7.80
2017,05,17,08,18,7.90
2017,05,17,08,19,7.90
2017,05,17,08,20,7.90
2017,05,17,08,21,8.00
2017,05,17,08,22,8.00
2017,05,17,08,23,8.10
2017,05,17,08,24,8.10
2017,05,17,08,25,8.20
2017,05,17,08,26,8.20
2017,05,17,08,27,8.20
2017,05,17,08,28,8.20
2017,05,17,08,29,8.20
2017,05,17,08,30,8.30
2017,05,17,08,31,8.30
2017,05,17,08,32,8.30
2017,05,17,08,33,8.40
2017,05,17,08,34,8.40
2017,05,17,08,35,8.50
2017,05,17,08,36,8.60
2017,05,17,08,37,8.70
2017,05,17,08,38,8.80
2017,05,17,08,39,8.90
2017,05,17,08,40,9.00
2017,05,17,08,41,9.00
2017,05,17,08,42,9.10
2017,05,17,08,43,9.10
2017,05,17,08,44,9.20
2017,05,17,08,45,9.30
2017,05,17,08,46,9.30
2017,05,17,08,47,9.40
2017,05,17,08,48,9.40
2017,05,17,08,49,9.50
2017,05,17,08,50,9.60
2017,05,17,08,51,9.60
2017,05,17,08,52,9.60
2017,05,17,08,53,9.70
2017,05,17,08,54,9.70
2017,05,17,08,55,9.70
2017,05,17,08,56,9.70
2017,05,17,08,57,9.70
2017,05,17,08,58,9.70
2017,05,17,08,59,9.70
2017,05,17,09,00,9.80
2017,05,17,09,01,9.80
2017,05,17,09,02,9.80
2017,05,17,09,03,9.90
2017,05,17,09,04,10.00
2017,05,17,09,05,10.00
2017,05,17,09,06,10.10
2017,05,17,09,07,10.20
2017,05,17,09,08,10.30
2017,05,17,09,09,10.40
2017,05,17,09,10,10.50
2017,05,17,09,11,10.50
2017,05,17,09,12,10.60
2017,05,17,09,13,10.60
2017,05,17,09,14,10.60
2017,05,17,09,15,10.70
2017,05,17,09,16,10.70
2017,05,17,09,17,10.70
2017,05,17,09,18,10.70
2017,05,17,09,19,10.70
2017,05,17,09,20,10.80
2017,05,17,09,21,10.80
2017,05,17,09,22,10.90
2017,05,17,09,23,10.90
2017,05,17,09,24,11.00
2017,05,17,09,25,11.00
2017,05,17,09,26,11.10
2017,05,17,09,27,11.10
2017,05,17,09,28,11.10
2017,05,17,09,29,11.10
2017,05,17,09,30,11.10
2017,05,17,09,31,11.10
2017,05,17,09,32,11.20
2017,05,17,09,33,11.20
2017,05,17,09,34,11.20
2017,05,17,09,35,11.30
2017,05,17,09,36,11.30
2017,05,17,09,37,11.40
2017,05,17,09,38,11.40
2017,05,17,09,39,11.50
2017,05,17,09,40,11.40
2017,05,17,09,41,11.40
2017,05,17,09,42,11.40
2017,05,17,09,43,11.40
2017,05,17,09,44,11.40
2017,05,17,09,45,11.50
2017,05,17,09,46,11.50
2017,05,17,09,47,11.50
2017,05,17,09,48,11.60
2017,05,17,09,49,11.60
2017,05,17,09,50,11.60
2017,05,17,09,51,11.70
2017,05,17,09,52,11.70
2017,05,17,09,53,11.70
2017,05,17,09,54,11.80
2017,05,17,09,55,11.80
2017,05,17,09,56,11.80
2017,05,17,09,57,11.80
2017,05,17,09,58,11.90
2017,05,17,09,59,11.90
2017,05,17,10,00,12.00
2017,05,17,10,01,12.00
2017,05,17,10,02,12.00
2017,05,17,10,03,12.00
2017,05,17,10,04,12.00
2017,05,17,10,05,12.00
2017,05,17,10,06,12.00
2017,05,17,10,07,12.00
2017,05,17,10,08,12.00
2017,05,17,10,09,12.00
2017,05,17,10,10,12.10
2017,05,17,10,11,12.10
2017,05,17,10,12,12.10
2017,05,17,10,13,12.10
2017,05,17,10,14,12.20
2017,05,17,10,15,12.20
2017,05,17,10,16,12.20
2017,05,17,10,17,12.30
2017,05,17,10,18,12.30
2017,05,17,10,19,12.40
2017,05,17,10,20,12.40
2017,05,17,10,21,12.40
2017,05,17,10,22,12.40
2017,05,17,10,23,12.30
2017,05,17,10,24,12.30
2017,05,17,10,25,12.40
2017,05,17,10,26,12.40
2017,05,17,10,27,12.50
2017,05,17,10,28,12.60
2017,05,17,10,29,12.70
2017,05,17,10,30,12.70
2017,05,17,10,31,12.70
2017,05,17,10,32,12.80
2017,05,17,10,33,12.70
2017,05,17,10,34,12.70
2017,05,17,10,35,12.70
2017,05,17,10,36,12.80
2017,05,17,10,37,12.90
2017,05,17,10,38,12.90
2017,05,17,10,39,13.00
2017,05,17,10,40,13.10
2017,05,17,10,41,13.20
2017,05,17,10,42,13.20
2017,05,17,10,43,13.20
2017,05,17,10,44,13.20
2017,05,17,10,45,13.20
2017,05,17,10,46,13.20
2017,05,17,10,47,13.20
2017,05,17,10,48,13.30
2017,05,17,10,49,13.30
2017,05,17,10,50,13.30
2017,05,17,10,51,13.30
2017,05,17,10,52,13.30
2017,05,17,10,53,13.20
2017,05,17,10,54,13.20
2017,05,17,10,55,13.20
2017,05,17,10,56,13.20
2017,05,17,10,57,13.20
2017,05,17,10,58,13.20
2017,05,17,10,59,13.20
2017,05,17,11,00,13.30
2017,05,17,11,01,13.30
2017,05,17,11,02,13.30
2017,05,17,11,03,13.30
2017,05,17,11,04,13.30
2017,05,17,11,05,13.40
2017,05,17,11,06,13.40
2017,05,17,11,07,13.60
2017,05,17,11,08,13.70
2017,05,17,11,09,13.70
2017,05,17,11,10,13.80
2017,05,17,11,11,13.80
2017,05,17,11,12,13.80
2017,05,17,11,13,13.70
2017,05,17,11,14,13.70
2017,05,17,11,15,13.70
2017,05,17,11,16,13.70
2017,05,17,11,17,13.70
2017,05,17,11,18,13.80
2017,05,17,11,19,13.70
2017,05,17,11,20,13.70
2017,05,17,11,21,13.70
2017,05,17,11,22,13.70
2017,05,17,11,23,13.70
2017,05,17,11,24,13.70
2017,05,17,11,25,13.80
2017,05,17,11,26,13.80
2017,05,17,11,27,13.80
2017,05,17,11,28,13.90
2017,05,17,11,29,13.90
2017,05,17,11,30,13.90
2017,05,17,11,31,14.00
2017,05,17,11,32,14.00
2017,05,17,11,33,14.00
2017,05,17,11,34,14.10
2017,05,17,11,35,14.10
2017,05,17,11,36,14.10
2017,05,17,11,37,14.10
2017,05,17,11,38,14.10
2017,05,17,11,39,14.10
2017,05,17,11,40,14.10
2017,05,17,11,41,14.20
2017,05,17,11,42,14.20
2017,05,17,11,43,14.20
2017,05,17,11,44,14.30
2017,05,17,11,45,14.30
2017,05,17,11,46,14.30
2017,05,17,11,47,14.40
2017,05,17,11,48,14.40
2017,05,17,11,49,14.50
2017,05,17,11,50,14.60
2017,05,17,11,51,14.60
2017,05,17,11,52,14.70
2017,05,17,11,53,14.70
2017,05,17,11,54,14.70
2017,05,17,11,55,14.80
2017,05,17,11,56,14.80
2017,05,17,11,57,14.80
2017,05,17,11,58,14.80
2017,05,17,11,59,14.70
2017,05,17,12,00,14.70
2017,05,17,12,01,14.70
2017,05,17,12,02,14.70
2017,05,17,12,03,14.70
2017,05,17,12,04,14.70
2017,05,17,12,05,14.80
2017,05,17,12,06,14.80
2017,05,17,12,07,14.80
2017,05,17,12,08,14.80
2017,05,17,12,09,14.80
2017,05,17,12,10,14.80
2017,05,17,12,11,14.90
2017,05,17,12,12,15.00
2017,05,17,12,13,15.00
2017,05,17,12,14,15.00
2017,05,17,12,15,15.00
2017,05,17,12,16,14.90
2017,05,17,12,17,14.90
2017,05,17,12,18,14.80
2017,05,17,12,19,14.90
2017,05,17,12,20,14.90
2017,05,17,12,21,14.90
2017,05,17,12,22,14.90
2017,05,17,12,23,14.80
2017,05,17,12,24,14.80
2017,05,17,12,25,14.80
2017,05,17,12,26,14.80
2017,05,17,12,27,14.90
2017,05,17,12,28,14.90
2017,05,17,12,29,14.90
2017,05,17,12,30,14.90
2017,05,17,12,31,15.00
2017,05,17,12,32,15.00
2017,05,17,12,33,15.00
2017,05,17,12,34,15.00
2017,05,17,12,35,15.00
2017,05,17,12,36,15.10
2017,05,17,12,37,15.10
2017,05,17,12,38,15.10
2017,05,17,12,39,15.20
2017,05,17,12,40,15.20
2017,05,17,12,41,15.20
2017,05,17,12,42,15.20
2017,05,17,12,43,15.20
2017,05,17,12,44,15.20
2017,05,17,12,45,15.20
2017,05,17,12,46,15.20
2017,05,17,12,47,15.20
2017,05,17,12,48,15.20
2017,05,17,12,49,15.20
2017,05,17,12,50,15.20
2017,05,17,12,51,15.20
2017,05,17,12,52,15.20
2017,05,17,12,53,15.30
2017,05,17,12,54,15.30
2017,05,17,12,55,15.30
2017,05,17,12,56,15.30
2017,05,17,12,57,15.30
2017,05,17,12,58,15.30
2017,05,17,12,59,15.30
2017,05,17,13,00,15.30
2017,05,17,13,01,15.30
2017,05,17,13,02,15.30
2017,05,17,13,03,15.30
2017,05,17,13,04,15.40
2017,05,17,13,05,15.40
2017,05,17,13,06,15.40
2017,05,17,13,07,15.40
2017,05,17,13,08,15.50
2017,05,17,13,09,15.50
2017,05,17,13,10,15.60
2017,05,17,13,11,15.60
2017,05,17,13,12,15.60
2017,05,17,13,13,15.60
2017,05,17,13,14,15.60
2017,05,17,13,15,15.60
2017,05,17,13,16,15.60
2017,05,17,13,17,15.60
2017,05,17,13,18,15.60
2017,05,17,13,19,15.60
2017,05,17,13,20,15.60
2017,05,17,13,21,15.60
2017,05,17,13,22,15.60
2017,05,17,13,23,15.60
2017,05,17,13,24,15.60
2017,05,17,13,25,15.60
2017,05,17,13,26,15.60
2017,05,17,13,27,15.60
2017,05,17,13,28,15.60
2017,05,17,13,29,15.60
2017,05,17,13,30,15.60
2017,05,17,13,31,15.70
2017,05,17,13,32,15.70
2017,05,17,13,33,15.70
2017,05,17,13,34,15.70
2017,05,17,13,35,15.70
2017,05,17,13,36,15.70
2017,05,17,13,37,15.60
2017,05,17,13,38,15.60
2017,05,17,13,39,15.60
2017,05,17,13,40,15.70
2017,05,17,13,41,15.70
2017,05,17,13,42,15.60
2017,05,17,13,43,15.60
2017,05,17,13,44,15.60
2017,05,17,13,45,15.60
2017,05,17,13,46,15.60
2017,05,17,13,47,15.60
2017,05,17,13,48,15.60
2017,05,17,13,49,15.60
2017,05,17,13,50,15.60
2017,05,17,13,51,15.60
2017,05,17,13,52,15.60
2017,05,17,13,53,15.60
2017,05,17,13,54,15.60
2017,05,17,13,55,15.70
2017,05,17,13,56,15.70
2017,05,17,13,57,15.70
2017,05,17,13,58,15.80
2017,05,17,13,59,15.80
2017,05,17,14,00,15.80
2017,05,17,14,01,15.80
2017,05,17,14,02,15.80
2017,05,17,14,03,15.80
2017,05,17,14,04,15.80
2017,05,17,14,05,15.90
2017,05,17,14,06,15.90
2017,05,17,14,07,15.90
2017,05,17,14,08,15.90
2017,05,17,14,09,15.90
2017,05,17,14,10,15.90
2017,05,17,14,11,15.90
2017,05,17,14,12,15.90
2017,05,17,14,13,16.00
2017,05,17,14,14,16.00
2017,05,17,14,15,16.10
2017,05,17,14,16,16.10
2017,05,17,14,17,16.00
2017,05,17,14,18,16.00
2017,05,17,14,19,16.00
2017,05,17,14,20,16.10
2017,05,17,14,21,16.10
2017,05,17,14,22,16.10
2017,05,17,14,23,16.20
2017,05,17,14,24,16.10
2017,05,17,14,25,16.10
2017,05,17,14,26,16.10
2017,05,17,14,27,16.00
2017,05,17,14,28,16.00
2017,05,17,14,29,16.10
2017,05,17,14,30,16.20
2017,05,17,14,31,16.20
2017,05,17,14,32,16.30
2017,05,17,14,33,16.40
2017,05,17,14,34,16.40
2017,05,17,14,35,16.50
2017,05,17,14,36,16.50
2017,05,17,14,37,16.50
2017,05,17,14,38,16.50
2017,05,17,14,39,16.40
2017,05,17,14,40,16.40
2017,05,17,14,41,16.40
2017,05,17,14,42,16.30
2017,05,17,14,43,16.30
2017,05,17,14,44,16.20
2017,05,17,14,45,16.20
2017,05,17,14,46,16.20
2017,05,17,14,47,16.20
2017,05,17,14,48,16.20
2017,05,17,14,49,16.30
2017,05,17,14,50,16.30
2017,05,17,14,51,16.30
2017,05,17,14,52,16.40
2017,05,17,14,53,16.40
2017,05,17,14,54,16.40
2017,05,17,14,55,16.30
2017,05,17,14,56,16.40
2017,05,17,14,57,16.40
2017,05,17,14,58,16.40
2017,05,17,14,59,16.40
2017,05,17,15,00,16.50
2017,05,17,15,01,16.60
2017,05,17,15,02,16.60
2017,05,17,15,03,16.60
2017,05,17,15,04,16.60
2017,05,17,15,05,16.60
2017,05,17,15,06,16.60
2017,05,17,15,07,16.60
2017,05,17,15,08,16.60
2017,05,17,15,09,16.70
2017,05,17,15,10,16.60
2017,05,17,15,11,16.50
2017,05,17,15,12,16.50
2017,05,17,15,13,16.50
2017,05,17,15,14,16.40
2017,05,17,15,15,16.50
2017,05,17,15,16,16.50
2017,05,17,15,17,16.60
2017,05,17,15,18,16.60
2017,05,17,15,19,16.70
2017,05,17,15,20,16.70
2017,05,17,15,21,16.60
2017,05,17,15,22,16.60
2017,05,17,15,23,16.50
2017,05,17,15,24,16.50
2017,05,17,15,25,16.40
2017,05,17,15,26,16.40
2017,05,17,15,27,16.40
2017,05,17,15,28,16.40
2017,05,17,15,29,16.40
2017,05,17,15,30,16.50
2017,05,17,15,31,16.40
2017,05,17,15,32,16.50
2017,05,17,15,33,16.50
2017,05,17,15,34,16.50
2017,05,17,15,35,16.40
2017,05,17,15,36,16.30
2017,05,17,15,37,16.30
2017,05,17,15,38,16.30
2017,05,17,15,39,16.30
2017,05,17,15,40,16.40
2017,05,17,15,41,16.50
2017,05,17,15,42,16.60
2017,05,17,15,43,16.70
2017,05,17,15,44,16.70
2017,05,17,15,45,16.80
2017,05,17,15,46,16.80
2017,05,17,15,47,16.80
2017,05,17,15,48,16.80
2017,05,17,15,49,16.80
2017,05,17,15,50,16.90
2017,05,17,15,51,17.00
2017,05,17,15,52,17.10
2017,05,17,15,53,17.10
2017,05,17,15,54,17.10
2017,05,17,15,55,17.10
2017,05,17,15,56,17.10
2017,05,17,15,57,17.10
2017,05,17,15,58,17.10
2017,05,17,15,59,17.00
2017,05,17,16,00,16.90
2017,05,17,16,01,16.80
2017,05,17,16,02,16.80
2017,05,17,16,03,16.90
2017,05,17,16,04,16.90
2017,05,17,16,05,16.90
2017,05,17,16,06,16.90
2017,05,17,16,07,16.80
2017,05,17,16,08,16.80
2017,05,17,16,09,16.80
2017,05,17,16,10,16.80
2017,05,17,16,11,16.80
2017,05,17,16,12,16.80
2017,05,17,16,13,16.80
2017,05,17,16,14,16.90
2017,05,17,16,15,16.90
2017,05,17,16,16,16.90
2017,05,17,16,17,16.90
2017,05,17,16,18,16.80
2017,05,17,16,19,16.70
2017,05,17,16,20,16.70
2017,05,17,16,21,16.70
2017,05,17,16,22,16.80
2017,05,17,16,23,16.80
2017,05,17,16,24,16.70
2017,05,17,16,25,16.60
2017,05,17,16,26,16.70
2017,05,17,16,27,16.70
2017,05,17,16,28,16.70
2017,05,17,16,29,16.70
2017,05,17,16,30,16.70
2017,05,17,16,31,16.70
2017,05,17,16,32,16.80
2017,05,17,16,33,16.80
2017,05,17,16,34,16.90
2017,05,17,16,35,16.90
2017,05,17,16,36,16.90
2017,05,17,16,37,16.90
2017,05,17,16,38,16.80
2017,05,17,16,39,16.80
2017,05,17,16,40,16.90
2017,05,17,16,41,16.90
2017,05,17,16,42,16.90
2017,05,17,16,43,16.80
2017,05,17,16,44,16.70
2017,05,17,16,45,16.70
2017,05,17,16,46,16.70
2017,05,17,16,47,16.80
2017,05,17,16,48,16.80
2017,05,17,16,49,16.80
2017,05,17,16,50,16.70
2017,05,17,16,51,16.70
2017,05,17,16,52,16.70
2017,05,17,16,53,16.70
2017,05,17,16,54,16.70
2017,05,17,16,55,16.60
2017,05,17,16,56,16.60
2017,05,17,16,57,16.60
2017,05,17,16,58,16.50
2017,05,17,16,59,16.60
2017,05,17,17,00,16.60
2017,05,17,17,01,16.70
2017,05,17,17,02,16.80
2017,05,17,17,03,16.90
2017,05,17,17,04,17.00
2017,05,17,17,05,17.10
2017,05,17,17,06,17.10
2017,05,17,17,07,17.20
2017,05,17,17,08,17.20
2017,05,17,17,09,17.20
2017,05,17,17,10,17.30
2017,05,17,17,11,17.20
2017,05,17,17,12,17.20
2017,05,17,17,13,17.20
2017,05,17,17,14,17.20
2017,05,17,17,15,17.30
2017,05,17,17,16,17.30
2017,05,17,17,17,17.30
2017,05,17,17,18,17.30
2017,05,17,17,19,17.40
2017,05,17,17,20,17.40
2017,05,17,17,21,17.40
2017,05,17,17,22,17.50
2017,05,17,17,23,17.50
2017,05,17,17,24,17.50
2017,05,17,17,25,17.30
2017,05,17,17,26,17.20
2017,05,17,17,27,17.10
2017,05,17,17,28,17.10
2017,05,17,17,29,17.00
2017,05,17,17,30,16.90
2017,05,17,17,31,16.90
2017,05,17,17,32,16.80
2017,05,17,17,33,16.70
2017,05,17,17,34,16.70
2017,05,17,17,35,16.60
2017,05,17,17,36,16.50
2017,05,17,17,37,16.40
2017,05,17,17,38,16.30
2017,05,17,17,39,16.40
2017,05,17,17,40,16.40
2017,05,17,17,41,16.40
2017,05,17,17,42,16.50
2017,05,17,17,43,16.60
2017,05,17,17,44,16.70
2017,05,17,17,45,16.70
2017,05,17,17,46,16.70
2017,05,17,17,47,16.80
2017,05,17,17,48,16.80
2017,05,17,17,49,16.80
2017,05,17,17,50,16.80
2017,05,17,17,51,16.80
2017,05,17,17,52,16.70
2017,05,17,17,53,16.60
2017,05,17,17,54,16.50
2017,05,17,17,55,16.30
2017,05,17,17,56,16.20
2017,05,17,17,57,16.20
2017,05,17,17,58,16.20
2017,05,17,17,59,16.20
2017,05,17,18,00,16.20
2017,05,17,18,01,16.20
2017,05,17,18,02,16.20
2017,05,17,18,03,16.20
2017,05,17,18,04,16.30
2017,05,17,18,05,16.30
2017,05,17,18,06,16.40
2017,05,17,18,07,16.30
2017,05,17,18,08,16.20
2017,05,17,18,09,16.10
2017,05,17,18,10,16.00
2017,05,17,18,11,16.00
2017,05,17,18,12,16.00
2017,05,17,18,13,16.00